Карточка аэропорта UNKL

Внимание!
Информация на этой странице в стадии наполнения.
Если вы не увидели какой-то информации, или заметили неточность - пожалуйста сообщите нам!
Спасибо!
Команда RU-STAFF
Название аэропортаЕмельяново
Название аэропорта (англ.)Yemelyanovo
Превышение942 ft. (287.1 m.)
Координаты56°10.386', 92°29.598'
Высота перехода7500ft
Эшелон переходаFL090
Коды ответчика5320-5377
Зона ОрВДКрасноярск РПИ (UNKL)
Данные METARUNKL 121900Z 00000MPS CAVOK 12/12 Q1009 R29/CLRD65 NOSIG RMK QFE731
Проноз погоды (TAF)UNKL 121645Z 1218/1318 31003G08MPS 9999 SCT018CB
NOTAMshow/hide NOTAM
AWOS   TABLE

Информация о ВПП

ВПП Длина ВПП (м.) Покрытие Курс ВПП Частота ILS
113700Асфальтобетон109110.5
293700Асфальтобетон289111.7

Диспетчерские позиции

Позывной Наименование органа УВД Частота
UNKL_TWRКрасноярск-Вышка118.3
UNKL_R_APPКрасноярск-Круг122.0
UNKL_APPКрасноярск-Подход127.7
UNKL_GNDКрасноярск-Руление121.9



Спутниковое изображение